Weather History for Fort Polk, LA

Change the Weather History Date:

Monday, May 12, 2014

  Actual Average (KPOE) Record (KPOE)
Temperature  
Mean Temperature 78 °F -  
Max Temperature 86 °F 81 °F 91 °F (2002)
Min Temperature 73 °F 62 °F 51 °F (2008)
Cooling Degree Days 14    
Growing Degree Days 28 (Base 50)    
Moisture  
Dew Point 71 °F    
Average Humidity 84    
Maximum Humidity 94    
Minimum Humidity 59    
Precipitation  
Precipitation 1.61 in - - ()
Sea Level Pressure  
Sea Level Pressure 29.97 in    
Wind  
Wind Speed 5 mph (SE)    
Max Wind Speed 8 mph    
Max Gust Speed 23 mph    
Visibility 8 miles    
Events Fog , Rain , Thunderstorm    
Averages and records for this station are not official NWS values.
T = Trace of Precipitation, MM = Missing Value Source: NWS Daily Summary

Daily Weather History Graph

Daily Weather History Graph

Search for Another Location

Airport:

Trip Planner

Search our weather history database for the weather conditions in past years. The results will help you decide how hot, cold, wet, or windy it might be!

Date:

Astronomy

May. 12, 2014 Rise Set
Actual Time 6:18 AM CDT 7:58 PM CDT
Civil Twilight 5:51 AM CDT 8:24 PM CDT
Nautical Twilight 5:20 AM CDT 8:56 PM CDT
Astronomical Twilight 4:47 AM CDT 9:29 PM CDT
Moon 6:04 PM CDT (5/12) 4:47 AM CDT (5/12)
Length of Visible Light 14h 32m
Length of Day
13h 39m
Waxing Gibbous, 95% of the Moon is Illuminated
May 12
Waxing Gibbous
May 14
Full
May 21
Last Quarter
May 28
New
Jun 5
First Quarter

Hourly Weather History & Observations

Time (CDT) Temp. Heat Index Dew Point Humidity Pressure Visibility Wind Dir Wind Speed Gust Speed Precip Events Conditions
12:54 AM 77.0 °F - 72.0 °F 84% 29.93 in 10.0 mi Variable 6.9 mph - N/A   Overcast
1:54 AM 77.0 °F - 72.0 °F 84% 29.94 in 10.0 mi Variable 4.6 mph - N/A   Overcast
2:10 AM 77.0 °F - 72.0 °F 84% 29.86 in 10.0 mi Variable 5.8 mph - N/A   Overcast
2:54 AM 77.0 °F - 71.1 °F 82% 29.94 in 10.0 mi South 6.9 mph - N/A   Overcast
3:15 AM 77.0 °F - 71.1 °F 82% 29.87 in 10.0 mi Variable 5.8 mph - N/A   Mostly Cloudy
3:54 AM 77.0 °F - 71.1 °F 82% 29.95 in 10.0 mi Variable 3.5 mph - N/A   Overcast
4:54 AM 77.0 °F - 71.1 °F 82% 29.96 in 10.0 mi Variable 3.5 mph - N/A   Overcast
5:54 AM 77.0 °F - 71.1 °F 82% 29.98 in 10.0 mi Variable 4.6 mph - N/A   Overcast
6:54 AM 77.0 °F - 71.1 °F 82% 30.01 in 10.0 mi Variable 3.5 mph - N/A   Overcast
7:13 AM 77.0 °F - 72.0 °F 84% 29.94 in 10.0 mi Variable 3.5 mph - N/A   Overcast
7:43 AM 78.1 °F - 72.0 °F 81% 29.96 in 10.0 mi Variable 3.5 mph - N/A   Mostly Cloudy
7:54 AM 78.1 °F - 72.0 °F 81% 30.04 in 10.0 mi Calm Calm - N/A   Overcast
8:20 AM 78.1 °F - 72.0 °F 81% 29.97 in 10.0 mi North - - N/A   Overcast
9:25 AM 82.0 °F 86.7 °F 72.0 °F 71% 29.97 in 10.0 mi Variable 4.6 mph 18.4 mph N/A   Mostly Cloudy
9:54 AM 82.0 °F 86.3 °F 71.1 °F 69% 30.05 in 10.0 mi Variable 5.8 mph 17.3 mph N/A   Mostly Cloudy
10:51 AM 82.4 °F 87.2 °F 71.6 °F 70% 29.98 in 10.0 mi SSE 8.1 mph - N/A   Mostly Cloudy
10:54 AM 82.9 °F 87.5 °F 71.1 °F 67% 30.05 in 10.0 mi Variable 6.9 mph - N/A   Mostly Cloudy
11:15 AM 82.9 °F 87.0 °F 70.0 °F 65% 29.98 in 10.0 mi Variable 3.5 mph - N/A   Overcast
11:23 AM 84.0 °F 89.0 °F 71.1 °F 65% 29.98 in 10.0 mi Calm Calm - N/A   Overcast
11:54 AM 84.9 °F 88.8 °F 69.1 °F 59% 30.05 in 10.0 mi Variable 6.9 mph - N/A   Mostly Cloudy
1:27 PM 84.0 °F 88.4 °F 70.0 °F 63% 29.97 in 10.0 mi Variable 6.9 mph 19.6 mph 0.00 in   Mostly Cloudy
1:54 PM 82.9 °F 87.5 °F 71.1 °F 67% 30.04 in 10.0 mi Variable 6.9 mph - 0.01 in Rain Light Rain
2:28 PM 81.0 °F 86.2 °F 73.9 °F 79% 29.95 in 10.0 mi ESE 5.8 mph - 0.03 in   Mostly Cloudy
2:40 PM 79.0 °F - 73.0 °F 82% 29.96 in 9.0 mi Variable 5.8 mph - 0.04 in Rain , Thunderstorm Light Thunderstorms and Rain
2:44 PM 77.0 °F - 73.0 °F 88% 29.96 in 1.2 mi ESE 8.1 mph - 0.22 in Rain , Thunderstorm Heavy Thunderstorms and Rain
2:54 PM 73.9 °F - 71.1 °F 91% 30.04 in 0.5 mi ESE 8.1 mph 23.0 mph 0.59 in Fog , Rain , Thunderstorm Heavy Thunderstorms and Rain
3:04 PM 75.0 °F - 71.1 °F 87% 29.96 in 3.0 mi Variable 6.9 mph - 0.01 in Rain , Thunderstorm Light Thunderstorms and Rain
3:37 PM 75.0 °F - 71.1 °F 87% 29.94 in 10.0 mi Variable 5.8 mph - 0.03 in Thunderstorm Thunderstorm
3:52 PM 75.2 °F - 71.6 °F 89% 29.93 in - Variable 5.8 mph - 0.03 in Thunderstorm Thunderstorm
3:54 PM 75.0 °F - 71.1 °F 87% 30.01 in - SE 8.1 mph - 0.03 in Rain , Thunderstorm Light Thunderstorms and Rain
4:30 PM 75.0 °F - 71.1 °F 87% 29.94 in 5.0 mi Variable 3.5 mph - 0.03 in Rain , Thunderstorm Light Thunderstorms and Rain
4:37 PM 73.9 °F - 71.1 °F 91% 29.95 in 1.8 mi Variable 3.5 mph - 0.08 in Rain , Thunderstorm Heavy Thunderstorms and Rain
4:41 PM 73.9 °F - 71.1 °F 91% 29.95 in 0.8 mi Variable 4.6 mph - 0.21 in Rain , Thunderstorm Heavy Thunderstorms and Rain
4:49 PM 73.4 °F - 71.6 °F 94% 29.95 in 1.0 mi Calm Calm - 0.31 in Rain , Thunderstorm Heavy Thunderstorms and Rain
4:54 PM 73.9 °F - 71.1 °F 91% 30.02 in 1.0 mi Variable 3.5 mph - 0.49 in Rain , Thunderstorm Heavy Thunderstorms and Rain
5:03 PM 73.0 °F - 71.1 °F 93% 29.95 in 1.5 mi Calm Calm - 0.09 in Rain , Thunderstorm Thunderstorms and Rain
5:06 PM 73.0 °F - 71.1 °F 93% 29.95 in 3.0 mi Calm Calm - 0.11 in Rain , Thunderstorm Thunderstorms and Rain
5:20 PM 73.0 °F - 71.1 °F 93% 29.96 in 2.0 mi Variable 3.5 mph - 0.22 in Rain , Thunderstorm Heavy Thunderstorms and Rain
5:24 PM 73.0 °F - 71.1 °F 93% 29.95 in 1.5 mi NNW 4.6 mph - 0.29 in Rain , Thunderstorm Heavy Thunderstorms and Rain
5:38 PM 73.0 °F - 70.0 °F 90% 29.93 in 2.5 mi NNE 6.9 mph - 0.45 in Rain , Thunderstorm Heavy Thunderstorms and Rain
5:46 PM 73.0 °F - 70.0 °F 90% 29.92 in 5.0 mi Variable 5.8 mph - 0.47 in Rain , Thunderstorm Thunderstorms and Rain
5:54 PM 73.0 °F - 71.1 °F 93% 29.99 in 6.0 mi Variable 4.6 mph - 0.49 in Rain , Thunderstorm Light Thunderstorms and Rain
6:02 PM 73.0 °F - 71.1 °F 93% 29.91 in 7.0 mi Variable 5.8 mph - 0.00 in Rain , Thunderstorm Light Thunderstorms and Rain
6:54 PM 73.9 °F - 71.1 °F 91% 30.00 in 9.0 mi Calm Calm - 0.00 in Thunderstorm Thunderstorm
7:12 PM 73.9 °F - 71.1 °F 91% 29.92 in 9.0 mi Variable 4.6 mph - N/A   Scattered Clouds
7:54 PM 75.0 °F - 72.0 °F 90% 30.01 in 10.0 mi SE 3.5 mph - N/A   Partly Cloudy
8:54 PM 75.0 °F - 71.1 °F 87% 30.00 in 10.0 mi Variable 4.6 mph - N/A   Scattered Clouds
9:54 PM 73.9 °F - 70.0 °F 87% 30.01 in 10.0 mi Calm Calm - N/A   Overcast
10:54 PM 75.0 °F - 71.1 °F 87% 30.02 in 8.0 mi Variable 3.5 mph - N/A   Overcast
11:22 PM 75.0 °F - 71.1 °F 87% 29.94 in 9.0 mi Variable 4.6 mph - N/A   Overcast
11:36 PM 75.0 °F - 71.1 °F 87% 29.94 in 10.0 mi Variable 4.6 mph - N/A   Overcast
11:54 PM 75.0 °F - 71.1 °F 87% 30.02 in 10.0 mi Variable 3.5 mph - N/A   Overcast